Waarnemingen

Advertentie
Mijn weer
Görlitz, Duitsland (10499): temperatuur & dauwpunt: 12.11.2017 04:00:00 - 18.11.2017 04:00:00 (CET)Görlitz, Duitsland (10499): temperatuur 5cm & temperatuur -5cm: 12.11.2017 04:00:00 - 18.11.2017 04:00:00 (CET)Görlitz, Duitsland (10499): temperatuur -20cm & temperatuur -100cm: 12.11.2017 04:00:00 - 18.11.2017 04:00:00 (CET)Görlitz, Duitsland (10499): windsnelheid & windstoten: 12.11.2017 04:00:00 - 18.11.2017 04:00:00 (CET)Görlitz, Duitsland (10499): windrichting: 12.11.2017 04:00:00 - 18.11.2017 04:00:00 (CET)Görlitz, Duitsland (10499): luchtdruk: 12.11.2017 04:00:00 - 18.11.2017 04:00:00 (CET)Görlitz, Duitsland (10499): zicht: 12.11.2017 04:00:00 - 18.11.2017 04:00:00 (CET)Görlitz, Duitsland (10499): Zonneschijnduur: 12.11.2017 04:00:00 - 18.11.2017 04:00:00 (CET)Görlitz, Duitsland (10499): neerslag: 12.11.2017 04:00:00 - 18.11.2017 04:00:00 (CET)
Datum & Tijd tt [°C] td [°C] tt 5cm [°C] tt -5cm [°C] tt -20cm [°C] tt -100cm [°C] ff [km/u] ff [kn] fx [km/u] fx [kn] dd ppp [hPa] vv [km] sd [min] rr [mm]
18.11.2017 04:00:00 - - - - - - - - - - - - - - -
18.11.2017 03:00:00 -1,7 -1,7 -3,2 3,2 5,5 9,4 8 4 9 5 Z 1023,8 5 0 0,0
18.11.2017 02:00:00 -1,1 -1,1 -2,3 3,3 5,6 9,3 6 3 8 5 Z 1024,3 3,5 0 0,0
18.11.2017 01:00:00 -2,4 -2,4 -3,4 3,4 5,7 9,4 7 4 9 5 Z 1025,0 1,7 0 0,0
18.11.2017 00:00:00 -1,8 -1,8 -3,2 3,5 5,8 9,4 6 3 10 5 Z 1025,2 10 0 0,0
17.11.2017 23:00:00 -0,4 -0,4 -2,1 3,7 6,0 9,4 9 5 10 6 ZW 1025,6 9 0 0,0
17.11.2017 22:00:00 0,2 0,2 -1,9 3,9 6,1 9,4 7 4 9 5 ZW 1025,6 10 0 0,0
17.11.2017 21:00:00 1,4 1,4 -0,4 4,2 6,3 9,4 8 4 9 5 WZW 1025,6 13 0 0,0
17.11.2017 20:00:00 1,7 1,7 -1,0 4,5 6,4 9,4 8 4 9 5 WZW 1025,5 6 0 0,0
17.11.2017 19:00:00 2,1 2,1 -0,3 4,9 6,6 9,4 8 5 11 6 WZW 1025,6 9 0 0,0
17.11.2017 18:00:00 3,0 3,0 -0,2 5,3 6,6 9,4 6 3 8 4 W 1025,7 8 0 0,0
17.11.2017 17:00:00 3,4 3,4 0,1 5,8 6,7 9,4 4 2 8 4 WZW 1025,6 8 0 0,0
17.11.2017 16:00:00 4,5 4,2 1,9 6,1 6,7 9,4 6 3 11 6 W 1025,3 12 23 0,0
17.11.2017 15:00:00 5,6 4,3 5,6 6,2 6,6 9,4 8 4 14 8 WNW 1025,2 5 11 0,0
17.11.2017 14:00:00 5,5 5,2 5,6 6,1 6,6 9,4 8 4 20 11 NW 1024,9 4,5 0 0,0
17.11.2017 13:00:00 5,2 5,1 5,6 5,9 6,6 9,4 9 5 18 10 NW 1024,9 3,5 0 0,0
17.11.2017 12:00:00 4,9 4,9 5,4 5,8 6,5 9,4 10 5 22 12 WNW 1024,6 2,5 0 0,1
17.11.2017 11:00:00 4,7 4,5 4,9 5,7 6,5 9,4 11 6 20 11 W 1024,8 2,7 0 0,2
17.11.2017 10:00:00 4,5 4,2 4,7 5,6 6,6 9,4 8 4 13 7 WZW 1024,5 2,5 0 0,0
17.11.2017 09:00:00 4,0 3,5 4,1 5,5 6,6 9,4 8 4 14 8 WZW 1024,1 3,3 0 0,2
17.11.2017 08:00:00 3,7 2,5 3,7 5,4 6,7 9,4 7 4 13 7 WZW 1023,9 6 0 0,0
17.11.2017 07:00:00 3,1 2,1 2,9 5,5 6,8 9,4 10 5 16 9 W 1023,7 6 0 0,0
17.11.2017 06:00:00 3,0 2,0 2,6 5,8 6,8 9,4 10 5 17 9 WNW 1023,3 11 0 0,0
17.11.2017 05:00:00 4,2 2,6 3,4 5,9 6,8 9,4 10 5 14 7 WZW 1022,9 12 0 0,0
17.11.2017 04:00:00 5,2 2,8 4,6 6,0 6,9 9,4 7 4 15 8 WZW 1022,6 12 0 0,0
17.11.2017 03:00:00 5,4 2,8 5,0 6,0 6,9 9,4 12 7 18 10 ZW 1022,6 12 0 0,0
17.11.2017 02:00:00 5,8 2,1 5,3 6,1 6,9 9,4 14 8 21 11 ZZW 1022,7 12 0 0,0
17.11.2017 01:00:00 6,0 2,2 5,4 6,2 7,0 9,4 11 6 17 9 WZW 1022,9 15 0 0,0
17.11.2017 00:00:00 6,5 2,0 5,6 6,2 7,0 9,4 14 8 26 14 WZW 1022,7 18 0 0,0
16.11.2017 23:00:00 6,6 3,2 5,8 6,2 7,0 9,4 13 7 17 9 ZW 1022,8 17 0 0,0
16.11.2017 22:00:00 6,5 3,2 5,4 6,3 7,1 9,4 10 5 17 9 ZW 1022,6 16 0 0,0
16.11.2017 21:00:00 5,1 3,5 3,8 6,4 7,1 9,4 8 5 10 5 ZW 1022,9 15 0 0,0
16.11.2017 20:00:00 5,1 3,6 4,3 6,6 7,2 9,4 4 2 5 3 NW 1023,4 15 0 0,0
16.11.2017 19:00:00 5,7 3,8 5,0 6,7 7,2 9,4 4 2 8 4 WZW 1023,3 15 0 0,0
16.11.2017 18:00:00 5,1 3,9 4,5 6,9 7,2 9,4 3 2 6 3 ZZO 1023,8 15 0 0,0
16.11.2017 17:00:00 5,8 4,5 3,7 7,3 7,2 9,4 4 2 5 3 OZO 1023,6 21 0 0,0
16.11.2017 16:00:00 6,9 4,8 5,4 7,7 7,1 9,4 5 3 8 4 NO 1023,8 25 9 0,0
16.11.2017 15:00:00 9,9 4,5 9,1 7,8 6,9 9,4 1 1 9 5 W 1024,0 22 57 0,0
16.11.2017 14:00:00 8,9 4,3 9,8 7,6 6,7 9,4 9 5 14 7 Z 1024,4 21 60 0,0
16.11.2017 13:00:00 9,7 4,6 11,6 7,1 6,5 9,4 2 1 11 6 ZO 1025,0 20 32 0,0
16.11.2017 12:00:00 7,4 4,2 9,9 6,4 6,4 9,4 7 4 12 7 ZW 1025,7 21 0 0,0
16.11.2017 11:00:00 6,3 3,7 7,3 6,0 6,4 9,4 10 5 20 11 ZW 1026,3 18 0 0,0
16.11.2017 10:00:00 5,9 4,2 6,5 5,7 6,3 9,4 13 7 17 9 ZW 1026,7 17 0 0,0
16.11.2017 09:00:00 5,3 3,7 5,3 5,5 6,4 9,4 8 4 14 8 Z 1026,7 15 0 0,0
16.11.2017 08:00:00 4,6 3,3 4,0 5,5 6,4 9,4 11 6 18 10 ZZW 1026,9 11 0 0,0
16.11.2017 07:00:00 5,4 3,8 5,0 5,6 6,4 9,4 10 6 16 9 Z 1026,6 12 0 0,0
16.11.2017 06:00:00 5,4 3,9 5,0 5,5 6,4 9,4 5 3 14 8 ZZW 1026,6 9 0 0,0
16.11.2017 05:00:00 5,3 3,8 5,0 5,5 6,4 9,4 11 6 18 10 Z 1026,6 6 0 0,0
16.11.2017 04:00:00 5,1 4,1 4,8 5,4 6,4 9,5 8 5 11 6 Z 1026,6 5 0 0,0
16.11.2017 03:00:00 4,8 3,9 4,3 5,4 6,5 9,5 7 4 12 6 ZW 1026,9 5 0 0,0
16.11.2017 02:00:00 3,8 3,0 2,2 5,6 6,5 9,5 10 5 20 11 ZZW 1027,3 6 0 0,0
16.11.2017 01:00:00 4,7 3,5 3,0 5,8 6,6 9,5 10 6 22 12 WZW 1027,3 8 0 0,0
16.11.2017 00:00:00 5,4 3,8 5,1 5,9 6,6 9,5 13 7 19 10 ZZW 1027,4 8 0 0,0
15.11.2017 23:00:00 5,6 4,0 5,4 6,0 6,6 9,5 11 6 18 10 ZZW 1027,6 8 0 0,0
15.11.2017 22:00:00 5,7 4,0 5,5 6,0 6,6 9,5 9 5 18 10 ZZW 1027,7 6 0 0,0
15.11.2017 21:00:00 5,6 3,9 5,4 6,0 6,6 9,5 13 7 21 11 ZZW 1027,6 5 0 0,0
15.11.2017 20:00:00 5,7 4,0 5,5 6,0 6,6 9,5 10 5 21 11 WZW 1027,5 9 0 0,0
15.11.2017 19:00:00 5,8 4,1 5,6 6,0 6,5 9,5 14 8 21 11 ZW 1027,1 10 0 0,0
15.11.2017 18:00:00 5,9 4,2 5,6 6,1 6,5 9,5 14 8 19 10 ZZW 1026,9 5 0 0,0
15.11.2017 17:00:00 5,7 3,9 5,4 6,2 6,5 9,5 15 8 21 11 Z 1026,7 8 0 0,0
15.11.2017 16:00:00 5,5 3,7 5,0 6,4 6,5 9,5 14 8 21 11 Z 1026,4 7 0 0,0
15.11.2017 15:00:00 5,7 3,5 5,9 6,5 6,4 9,5 16 9 24 13 ZZW 1026,8 13 0 0,0
15.11.2017 14:00:00 5,9 3,7 6,4 6,5 6,2 9,5 15 8 24 13 ZZW 1026,8 14 0 0,0
15.11.2017 13:00:00 6,7 4,2 7,3 6,3 6,1 9,6 11 6 16 9 ZW 1027,1 20 0 0,0
15.11.2017 12:00:00 6,6 4,3 7,7 6,0 6,0 9,6 10 6 14 8 WZW 1027,1 15 0 0,0
15.11.2017 11:00:00 5,9 3,5 7,2 5,6 5,9 9,6 8 5 19 11 WZW 1027,4 17 23 0,0
15.11.2017 10:00:00 5,1 3,5 5,3 5,3 5,9 9,6 15 8 23 13 ZZW 1026,9 9 1 0,0
15.11.2017 09:00:00 4,4 3,5 4,5 5,1 5,9 9,6 14 8 21 11 ZZW 1027,1 7 0 0,1
15.11.2017 08:00:00 4,5 4,2 4,3 5,0 5,9 9,6 12 7 17 9 ZZW 1026,8 4,0 0 0,0
15.11.2017 07:00:00 4,5 4,0 4,2 5,0 5,9 9,6 8 5 14 7 ZZW 1026,5 4,0 0 0,0
15.11.2017 06:00:00 4,4 3,6 4,0 4,9 5,8 9,6 10 6 15 8 WZW 1025,9 4,0 0 0,0
15.11.2017 05:00:00 4,1 3,4 3,9 4,9 5,8 9,6 11 6 16 8 ZZW 1026,0 9 0 0,0
15.11.2017 04:00:00 4,0 3,3 3,7 4,8 5,8 9,6 9 5 14 8 ZZW 1025,9 9 0 0,0
15.11.2017 03:00:00 3,9 3,2 3,6 4,8 5,8 9,6 11 6 21 11 ZW 1026,0 12 0 0,1
15.11.2017 02:00:00 3,9 3,2 3,6 4,8 5,8 9,6 15 8 24 13 ZW 1025,8 5 0 0,1
15.11.2017 01:00:00 4,2 2,3 3,8 4,7 5,9 9,7 17 9 28 15 WZW 1025,6 12 0 0,0
15.11.2017 00:00:00 4,5 1,3 4,0 4,7 5,9 9,7 18 10 25 14 ZW 1025,6 18 0 0,0
14.11.2017 23:00:00 4,3 1,5 3,9 4,7 5,9 9,7 17 9 23 13 ZW 1025,2 18 0 0,0
14.11.2017 22:00:00 4,0 1,6 3,6 4,6 5,9 9,7 18 10 29 16 ZW 1025,4 20 0 0,0
14.11.2017 21:00:00 3,9 1,4 3,5 4,6 6,0 9,7 22 12 31 17 ZW 1025,1 18 0 0,0
14.11.2017 20:00:00 3,8 1,6 3,3 4,6 6,1 9,7 19 11 27 15 ZW 1024,8 16 0 0,0
14.11.2017 19:00:00 2,5 1,2 0,9 4,9 6,1 9,7 13 7 20 11 ZW 1024,7 12 0 0,0
14.11.2017 18:00:00 2,8 2,0 1,7 5,2 6,2 9,7 10 6 14 8 ZZW 1024,3 24 0 0,0
14.11.2017 17:00:00 3,3 1,2 1,7 5,5 6,1 9,7 10 6 20 11 WZW 1024,2 24 0 0,0
14.11.2017 16:00:00 5,4 2,1 4,9 5,6 6,1 9,7 14 8 23 13 ZW 1023,8 24 0 0,0
14.11.2017 15:00:00 5,8 2,2 5,5 5,7 6,0 9,8 12 6 26 14 W 1023,9 24 8 0,0
14.11.2017 14:00:00 5,4 1,7 5,3 5,7 5,9 9,8 14 8 29 16 W 1023,8 24 17 0,0
14.11.2017 13:00:00 5,8 2,1 7,1 5,5 5,8 9,8 16 9 28 15 WZW 1024,0 19 6 0,0
14.11.2017 12:00:00 5,3 2,7 7,1 5,1 5,7 9,8 10 5 20 11 W 1024,1 15 13 0,0
14.11.2017 11:00:00 4,4 2,5 4,9 4,8 5,7 9,8 12 6 22 12 W 1024,5 15 0 0,0
14.11.2017 10:00:00 3,8 2,5 4,1 4,6 5,7 9,8 10 6 18 10 ZW 1024,4 7 0 0,0
14.11.2017 09:00:00 3,2 2,2 3,3 4,4 5,7 9,8 9 5 15 8 WZW 1024,0 6 0 0,0
14.11.2017 08:00:00 2,6 1,7 2,6 4,4 5,7 9,8 9 5 15 8 WZW 1023,5 6 0 0,0
14.11.2017 07:00:00 2,5 1,8 2,4 4,4 5,8 9,8 9 5 17 9 WZW 1023,0 4,5 0 0,0
14.11.2017 06:00:00 2,4 1,7 2,3 4,3 5,8 9,8 6 4 17 9 W 1022,5 4,0 0 0,0
14.11.2017 05:00:00 2,2 1,2 1,9 4,4 5,8 9,8 5 3 13 7 W 1022,1 9 0 0,0
14.11.2017 04:00:00 2,1 1,1 1,8 4,4 5,9 9,9 8 4 16 9 W 1021,7 4,0 0 0,0
14.11.2017 03:00:00 2,0 1,5 2,0 4,4 5,9 9,9 8 4 20 11 WNW 1021,1 8 0 0,0
14.11.2017 02:00:00 2,0 1,5 1,8 4,6 6,0 9,9 13 7 21 12 W 1020,5 8 0 0,0
14.11.2017 01:00:00 2,4 1,6 1,9 4,7 6,0 9,9 12 7 22 12 W 1020,1 6 0 0,0
14.11.2017 00:00:00 2,8 2,1 2,6 4,8 6,0 9,9 12 6 24 13 W 1019,8 9 0 0,0
13.11.2017 23:00:00 3,3 2,4 2,8 4,9 6,0 9,9 12 6 30 16 WNW 1019,3 10 0 0,0
13.11.2017 22:00:00 3,6 2,8 3,2 4,9 6,1 9,9 13 7 26 14 WNW 1018,6 9 0 0,0
13.11.2017 21:00:00 3,8 2,7 3,2 4,9 6,1 9,9 16 9 29 16 W 1017,9 15 0 0,0
13.11.2017 20:00:00 3,8 2,7 3,2 4,9 6,1 9,9 14 8 24 13 W 1017,5 13 0 0,0
13.11.2017 19:00:00 3,7 3,1 3,1 5,0 6,1 9,9 10 6 22 12 WNW 1017,1 13 0 0,0
13.11.2017 18:00:00 3,4 2,5 - - - - 7 4 - - W 1016,8 - - 0,0
13.11.2017 17:00:00 3,5 2,6 - - - - 11 6 - - NNW 1015,6 - - -
13.11.2017 16:00:00 3,5 2,9 - - - - 11 6 - - WNW 1014,4 - - -
13.11.2017 15:00:00 3,4 3,0 - - - - 11 6 - - W 1014,0 - - -
13.11.2017 14:00:00 3,4 3,0 - - - - 11 6 - - WNW 1013,6 - - -
13.11.2017 13:00:00 3,4 3,0 - - - - 11 6 - - W 1012,8 - - -
13.11.2017 12:00:00 3,7 2,3 4,4 4,9 6,0 10,0 10 5 19 11 WNW 1011,2 16 - 0,0
13.11.2017 11:00:00 2,9 2,2 3,5 4,7 6,0 10,0 7 4 18 10 WNW 1010,9 13 - 0,0
13.11.2017 10:00:00 2,1 2,1 2,9 4,6 6,0 10,0 9 5 16 9 WNW 1010,2 6 0 0,5
13.11.2017 09:00:00 1,9 1,6 2,0 4,6 6,0 10,0 10 6 16 9 NNW 1010,0 4,5 0 0,4
13.11.2017 08:00:00 2,3 1,9 2,4 4,6 6,1 10,0 7 4 24 13 NW 1008,9 11 0 0,0
13.11.2017 07:00:00 2,2 1,6 2,1 4,6 6,1 10,1 13 7 24 13 NW 1008,1 12 0 0,0
13.11.2017 06:00:00 2,1 1,8 2,2 4,6 6,2 10,1 10 5 18 10 NW 1007,0 9 0 0,0
13.11.2017 05:00:00 1,8 1,5 1,9 4,6 6,2 10,1 8 5 23 12 NW 1006,0 8 0 0,1
13.11.2017 04:00:00 1,9 1,6 2,0 4,7 6,3 10,1 12 6 22 12 NW 1004,8 7 0 0,1
13.11.2017 03:00:00 1,8 1,6 1,9 4,7 6,4 10,1 11 6 24 13 NW 1004,2 4,0 0 0,1
13.11.2017 02:00:00 1,9 1,5 1,9 4,8 6,5 10,1 14 8 24 13 NNW 1003,2 4,0 0 0,4
13.11.2017 01:00:00 1,6 1,4 1,7 4,9 6,5 10,1 10 5 23 12 NNW 1002,6 3,7 0 0,7
13.11.2017 00:00:00 1,6 1,2 1,5 5,2 6,6 10,1 13 7 23 13 NNW 1001,7 3,5 0 1,8
12.11.2017 23:00:00 2,2 1,5 2,1 5,3 6,6 10,1 13 7 20 11 NNW 1001,0 3,3 0 0,7
12.11.2017 22:00:00 2,7 2,3 2,4 5,4 6,7 10,1 13 7 19 10 NNO 999,3 8 0 0,1
12.11.2017 21:00:00 2,9 1,9 2,5 5,5 6,7 10,1 11 6 13 7 N 999,0 9 0 0,1
12.11.2017 20:00:00 3,0 1,3 2,4 5,6 6,8 10,1 7 4 13 7 N 998,9 13 0 0,0
12.11.2017 19:00:00 3,1 0,8 2,3 5,7 6,8 10,1 5 3 13 7 O 998,7 22 0 0,1
12.11.2017 18:00:00 3,8 0,7 2,9 5,8 6,8 10,2 8 4 18 10 ZZO 999,6 20 0 0,1
12.11.2017 17:00:00 4,3 0,8 3,6 6,0 6,9 10,2 7 4 10 5 ZO 999,6 24 0 0,0
12.11.2017 16:00:00 4,5 0,5 3,7 6,1 6,9 10,2 7 4 19 10 Z 1000,5 30 0 0,0
12.11.2017 15:00:00 5,0 0,1 4,5 6,3 6,8 10,2 13 7 24 13 Z 1001,1 45 0 0,0
12.11.2017 14:00:00 5,2 0,4 5,0 6,4 6,7 10,2 21 11 31 17 Z 1002,3 35 0 0,0
12.11.2017 13:00:00 5,6 1,4 6,3 6,3 6,7 10,2 17 9 27 15 ZZW 1003,3 35 4 0,0
12.11.2017 12:00:00 5,3 1,5 6,1 6,1 6,6 10,2 18 10 27 15 ZZW 1004,0 30 3 0,0
12.11.2017 11:00:00 5,3 2,5 6,1 5,7 6,6 10,2 17 9 24 13 ZZW 1004,7 30 5 0,0
12.11.2017 10:00:00 4,8 2,0 5,4 5,5 6,6 10,2 16 8 23 12 WZW 1005,7 28 0 0,0
12.11.2017 09:00:00 4,2 1,8 4,1 5,3 6,6 10,2 8 5 14 7 ZW 1006,4 26 4 0,0
12.11.2017 08:00:00 3,3 1,4 3,1 5,3 6,6 10,2 8 4 16 9 ZW 1006,8 30 5 0,0
12.11.2017 07:00:00 3,4 1,0 2,1 5,4 6,7 10,2 13 7 29 16 W 1007,0 27 0 0,0
12.11.2017 06:00:00 3,7 0,9 2,8 5,4 6,7 10,3 16 9 30 16 W 1007,1 25 0 0,0
12.11.2017 05:00:00 3,5 1,4 2,8 5,5 6,8 10,3 13 7 25 13 W 1007,0 20 0 0,0
12.11.2017 04:00:00 3,9 2,0 3,2 5,5 6,8 10,3 17 9 32 17 W 1006,4 25 0 0,0

tt = temperatuur
td = dauwpunt
tt 5cm = temperatuur 5cm
tt -5cm = temperatuur -5cm
tt -20cm = temperatuur -20cm
tt -100cm = temperatuur -100cm
ff = windsnelheid
fx = windstoten
dd = windrichting
ppp = luchtdruk
vv = zicht
sd = Zonneschijnduur
rr = neerslag

Weerstations in de omgeving